Location: Błonie
(52.1971°N, 20.6200°E)
Time: 19:22:34
(UTC+01:00)

ISS - Visible Passes

Search period start: 22 February 2018 00:00
Search period end: 04 March 2018 00:00
Orbit: 402 x 407 km, 51.6° (Epoch: 23 February)

Date Brightness Start Highest point End Pass type
(mag) Time Alt. Az. Time Alt. Az. Time Alt. Az.
27 Feb -0.9 05:35:04 10° S 05:36:47 14° SE 05:38:29 10° ESE visible
01 Mar -1.7 05:25:39 10° SSW 05:28:20 23° SSE 05:31:01 10° E visible
02 Mar -1.2 04:34:10 10° S 04:36:14 16° SE 04:38:18 10° ESE visible
03 Mar -2.6 05:16:52 10° SW 05:19:57 38° SSE 05:23:02 10° E visible
